Miscellaneous Local Product
Issued by NWS Hastings, NE

Home | Current Version | Previous Version | Text Only | Print | Product List | Glossary Off
Versions: 1 2 3 4 5 6 7 8 9 10 11 12 13 14 15 16 17 18 19 20 21 22 23 24 25 26 27 28 29 30 31 32 33 34 35 36 37 38 39 40 41 42 43 44 45 46 47 48 49 50

000
AXUS43 KGID 281302
MISGRI

GID CWA HOURLY WEATHER ROUNDUP
NATIONAL WEATHER SERVICE HASTINGS NE
700 AM CST SAT FEB 28 2015

NOTE: "FAIR" INDICATES FEW OR NO CLOUDS BELOW 12,000 FEET WITH NO
SIGNIFICANT WEATHER AND/OR OBSTRUCTIONS TO VISIBILITY.

...SOUTH CENTRAL NEBRASKA...

CITY           SKY/WX    TMP DP  RH WIND       PRES   REMARKS
GRAND ISLAND   FAIR       6   4  91 S7        30.35F WCI  -6
HASTINGS       CLOUDY     7   4  87 S6        30.32F WCI  -3
KEARNEY        CLOUDY    10   7  85 SE8       30.29S WCI  -1
ORD            MOCLDY     9   4  80 S10       30.27F WCI  -5
YORK           MOCLDY     7   5  92 S6        30.38F WCI  -3
AURORA         FLURRIES  10   8  88 S8        30.35F WCI  -1
LEXINGTON      FLURRIES  14   9  79 S10       30.25R WCI   1
HOLDREGE       CLOUDY    12   8  83 S10       30.27S WCI  -1
HEBRON         PTCLDY     9   6  85 SE6       30.40F WCI  -1

...NEBRASKA PANHANDLE...

CITY           SKY/WX    TMP DP  RH WIND       PRES   REMARKS
CHADRON        CLEAR      5  -1  76 SW7       30.05R WCI  -7
ALLIANCE       CLEAR      3  -1  83 S3        30.02R
SCOTTSBLUFF    CLOUDY     9   5  84 E7        30.02R WCI  -2
SIDNEY         PTCLDY     1  -5  75 S3        30.02R

...WESTERN AND NORTH CENTRAL NEBRASKA...

CITY           SKY/WX    TMP DP  RH WIND       PRES   REMARKS
VALENTINE      CLEAR     11   5  77 S14       30.14S WCI  -5
AINSWORTH      CLEAR      8   4  85 S8        30.16F WCI  -5
ONEILL         CLEAR      7   4  86 S10       30.27S WCI  -7
BROKEN BOW     CLOUDY    13   7  77 S9        30.22S WCI   1
IMPERIAL         N/A     13   7  77 S14       30.12R WCI  -2
NORTH PLATTE   CLOUDY    13   6  74 S13       30.17S WCI  -2
MCCOOK         CLOUDY    15   8  73 S12       30.20S WCI   2

...EASTERN NEBRASKA...

CITY           SKY/WX    TMP DP  RH WIND       PRES   REMARKS
NORFOLK        CLEAR      7   1  76 S10       30.37S WCI  -8
SO SIOUX CITY  PTCLDY     3  -3  76 SE8       30.45F WCI -10
COLUMBUS       CLEAR      9  -2  61 S8        30.41S WCI  -4
ALBION         CLEAR      6   2  82 SE7       30.34S WCI  -6
OMAHA EPPLEY   PTCLDY     7   1  76 SE6       30.51R WCI  -3
OFFUTT AFB     CLEAR      6   1  78 E5        30.49R WCI  -3
MILLARD        CLEAR      7   1  75 SE5       30.49R WCI  -1
LINCOLN        CLEAR      6   1  80 S5        30.46S WCI  -3
NEBRASKA CITY  CLEAR      5  -1  75 S5        30.48S WCI  -4
BEATRICE       PTCLDY     9   2  75 SE3       30.44F
FALLS CITY     CLEAR     10   4  76 SE5       30.50S WCI   2

...NORTHERN KANSAS...

CITY           SKY/WX    TMP DP  RH WIND       PRES   REMARKS
GOODLAND       CLOUDY     9   6  88 SE10      30.09S WCI  -5
HILL CITY      LGT SNOW  13   9  84 SE7       30.28R VSB 1   WCI   3
NORTON         CLOUDY    12   7  79 SE7       30.24  WCI   2
PHILLIPSBURG   LGT SNOW  16  10  79 E7        30.32S WCI   6
SMITH CENTER   CLEAR     10   7  85 SE12      30.35R WCI  -4
BELOIT         CLOUDY    12   9  85 SE7       30.39F WCI   2
HAYS           MOCLDY    14   3  62 S10       30.31R WCI   1
RUSSELL        LGT SNOW  15  12  88 S10       30.32S FOG     WCI   2
CONCORDIA      CLOUDY    13  10  88 SE10      30.39F WCI   0
SALINA         LGT SNOW  17  12  80 SE9       30.42S WCI   6
TOPEKA         CLOUDY    16   8  71 E5        30.49F WCI   9



USA.gov is the U.S. government's official web portal to all federal, state and local government web resources and services.